Le nostre stazioni meteo in Italia

Pubblicità
Il mio iltempo24.it
Casale Monferrato, Italia (16068): Temperatura & dewpoint: 09.11.2018 08:00:00 - 15.11.2018 08:00:00 (CET)Casale Monferrato, Italia (16068): velocità del vento: 09.11.2018 08:00:00 - 15.11.2018 08:00:00 (CET)Casale Monferrato, Italia (16068): direzione del vento: 09.11.2018 08:00:00 - 15.11.2018 08:00:00 (CET)Casale Monferrato, Italia (16068): reduced air pressure: 09.11.2018 08:00:00 - 15.11.2018 08:00:00 (CET)Casale Monferrato, Italia (16068): precipitazioni: 09.11.2018 08:00:00 - 15.11.2018 08:00:00 (CET)
Data & Tempo tt [°C] td [°C] ff [km/h] ff [kn] dd ppp [hPa] rr [mm]
15.11.2018 08:00:00 - - - - - - -
15.11.2018 07:00:00 9,8 8,9 4 2 OSO 1027,2 -
15.11.2018 06:00:00 10,1 9,2 4 2 ONO 1027,2 -
15.11.2018 05:00:00 10,4 9,5 5 3 NO 1027,1 -
15.11.2018 04:00:00 10,6 9,7 4 2 O 1027,3 -
15.11.2018 03:00:00 10,7 9,8 2 1 N 1027,7 -
15.11.2018 02:00:00 11,2 10,3 4 2 NO 1027,9 -
15.11.2018 01:00:00 11,4 10,5 4 2 NO 1028,0 0,0
15.11.2018 00:00:00 11,7 10,8 4 2 ONO 1028,3 -
14.11.2018 23:00:00 11,7 10,8 2 1 O 1028,3 -
14.11.2018 22:00:00 11,6 10,7 0 0 N 1028,2 -
14.11.2018 21:00:00 11,6 10,7 0 0 N 1028,1 -
14.11.2018 20:00:00 11,5 10,6 0 0 N 1028,0 -
14.11.2018 19:00:00 11,6 10,7 4 2 NE 1027,8 0,0
14.11.2018 18:00:00 11,9 10,8 2 1 NNO 1027,5 -
14.11.2018 17:00:00 12,4 11,3 0 0 N 1027,5 -
14.11.2018 16:00:00 12,5 11,5 4 2 N 1027,9 -
14.11.2018 15:00:00 12,8 11,8 0 0 N 1028,0 -
14.11.2018 14:00:00 12,5 11,5 4 2 N 1028,7 -
14.11.2018 13:00:00 12,2 11,4 4 2 NO 1029,5 0,0
14.11.2018 12:00:00 11,5 10,6 5 3 NO 1030,3 -
14.11.2018 11:00:00 10,8 9,9 8 4 NO 1030,6 -
14.11.2018 10:00:00 10,5 9,6 9 5 NO 1030,3 -
14.11.2018 09:00:00 10,6 9,7 4 2 NO 1030,0 -
14.11.2018 08:00:00 10,1 9,2 4 2 NNO 1029,6 -
14.11.2018 07:00:00 9,9 9,0 2 1 N 1029,0 -
14.11.2018 06:00:00 9,3 8,4 0 0 N 1028,8 -
14.11.2018 05:00:00 8,5 7,4 2 1 NNO 1028,5 -
14.11.2018 04:00:00 8,9 7,8 4 2 ONO 1028,5 -
14.11.2018 03:00:00 9,2 8,1 2 1 O 1028,7 -
14.11.2018 02:00:00 9,3 8,2 0 0 N 1028,5 -
14.11.2018 01:00:00 10,5 9,4 4 2 OSO 1028,5 0,0
14.11.2018 00:00:00 11,2 10,1 0 0 N 1028,5 -
13.11.2018 23:00:00 11,3 10,2 0 0 N 1028,5 -
13.11.2018 22:00:00 11,4 10,1 2 1 SSO 1028,4 -
13.11.2018 21:00:00 12,8 11,5 4 2 SO 1028,1 -
13.11.2018 20:00:00 13,6 12,5 4 2 OSO 1028,2 -
13.11.2018 19:00:00 14,0 12,7 2 1 O 1027,7 0,0
13.11.2018 18:00:00 14,8 13,4 2 1 SO 1027,5 -
13.11.2018 17:00:00 15,2 13,8 8 4 S 1027,4 -
13.11.2018 16:00:00 15,9 14,4 4 2 S 1027,1 -
13.11.2018 15:00:00 15,8 14,4 4 2 S 1027,2 -
13.11.2018 14:00:00 15,6 14,2 5 3 S 1027,7 -
13.11.2018 13:00:00 15,2 13,8 0 0 N 1028,0 0,0
13.11.2018 12:00:00 14,8 13,6 5 3 N 1028,4 -
13.11.2018 11:00:00 14,2 13,2 0 0 N 1028,8 -
13.11.2018 10:00:00 13,6 12,6 0 0 N 1028,5 -
13.11.2018 09:00:00 13,1 12,1 4 2 NNO 1028,4 -
13.11.2018 08:00:00 13,0 12,0 2 1 OSO 1027,8 -
13.11.2018 07:00:00 12,9 11,9 5 3 N 1027,3 0,0
13.11.2018 06:00:00 13,1 12,1 2 1 O 1027,2 -
13.11.2018 05:00:00 13,1 12,1 0 0 N 1027,3 -
13.11.2018 04:00:00 13,1 12,1 0 0 N 1027,4 -
13.11.2018 03:00:00 13,0 12,0 2 1 OSO 1027,7 -
13.11.2018 02:00:00 13,3 12,3 0 0 N 1027,7 -
13.11.2018 01:00:00 13,5 12,5 2 1 ESE 1027,7 0,0
13.11.2018 00:00:00 13,6 12,5 0 0 N 1027,7 -
12.11.2018 23:00:00 13,7 12,6 2 1 O 1027,7 -
12.11.2018 22:00:00 13,8 12,7 2 1 OSO 1027,7 -
12.11.2018 21:00:00 13,8 12,7 2 1 SO 1027,6 -
12.11.2018 20:00:00 13,9 12,8 0 0 N 1027,5 -
12.11.2018 19:00:00 14,0 12,8 4 2 S 1027,2 0,0
12.11.2018 18:00:00 14,2 12,9 0 0 N 1026,8 -
12.11.2018 17:00:00 14,6 13,4 0 0 N 1026,8 -
12.11.2018 16:00:00 14,7 13,4 2 1 ESE 1026,7 -
12.11.2018 15:00:00 14,8 13,4 4 2 N 1026,4 -
12.11.2018 14:00:00 14,9 13,7 0 0 N 1026,6 -
12.11.2018 13:00:00 14,4 13,2 4 2 NNO 1027,1 0,0
12.11.2018 12:00:00 14,3 13,3 0 0 N 1027,1 -
12.11.2018 11:00:00 13,8 12,8 4 2 OSO 1027,2 -
12.11.2018 10:00:00 13,7 12,7 4 2 ONO 1026,9 -
12.11.2018 09:00:00 13,1 12,1 0 0 N 1026,5 -
12.11.2018 08:00:00 12,8 11,8 0 0 N 1026,2 -
12.11.2018 07:00:00 12,7 11,7 0 0 N 1025,6 -
12.11.2018 06:00:00 12,7 11,7 0 0 N 1025,3 -
12.11.2018 05:00:00 12,7 11,7 0 0 N 1025,1 -
12.11.2018 04:00:00 12,8 11,8 0 0 N 1025,1 -
12.11.2018 03:00:00 12,8 11,8 0 0 N 1025,2 -
12.11.2018 02:00:00 12,9 11,9 0 0 N 1025,1 -
12.11.2018 01:00:00 12,9 11,9 0 0 N 1024,9 -
12.11.2018 00:00:00 12,9 11,9 0 0 N 1024,8 -
11.11.2018 23:00:00 12,8 11,8 0 0 N 1024,5 -
11.11.2018 22:00:00 12,9 11,9 2 1 O 1024,4 -
11.11.2018 21:00:00 12,9 11,9 2 1 NO 1023,8 -
11.11.2018 20:00:00 13,0 12,0 0 0 N 1023,5 -
11.11.2018 19:00:00 13,0 12,0 0 0 N 1023,2 -
11.11.2018 18:00:00 13,0 12,0 0 0 N 1022,8 -
11.11.2018 17:00:00 13,1 12,1 0 0 N 1022,2 -
11.11.2018 16:00:00 13,1 12,1 0 0 N 1021,8 -
11.11.2018 15:00:00 13,0 12,0 2 1 NNO 1021,6 -
11.11.2018 14:00:00 12,9 11,9 0 0 N 1021,2 -
11.11.2018 13:00:00 12,7 11,7 0 0 N 1021,0 0,0
11.11.2018 12:00:00 12,5 11,5 0 0 N 1020,8 -
11.11.2018 11:00:00 12,3 11,4 2 1 NNO 1020,6 -
11.11.2018 10:00:00 12,0 11,1 4 2 E 1019,7 -
11.11.2018 09:00:00 12,0 11,1 4 2 NNE 1019,1 -
11.11.2018 08:00:00 11,9 11,0 5 3 NNE 1018,2 -
11.11.2018 07:00:00 12,0 11,1 4 2 N 1017,6 -
11.11.2018 06:00:00 12,0 11,1 4 2 ENE 1017,1 -
11.11.2018 05:00:00 12,0 11,1 4 2 N 1017,0 -
11.11.2018 04:00:00 12,0 11,1 4 2 N 1016,9 -
11.11.2018 03:00:00 11,9 11,0 4 2 ENE 1016,7 -
11.11.2018 02:00:00 12,1 11,0 4 2 NE 1016,4 -
11.11.2018 01:00:00 12,2 11,1 4 2 NE 1016,3 -
11.11.2018 00:00:00 12,2 11,1 4 2 ENE 1016,4 -
10.11.2018 23:00:00 12,4 11,3 5 3 ENE 1016,4 -
10.11.2018 22:00:00 12,5 11,4 5 3 N 1016,1 -
10.11.2018 21:00:00 12,6 11,5 4 2 NNO 1016,0 -
10.11.2018 20:00:00 12,5 11,4 2 1 N 1015,7 -
10.11.2018 19:00:00 12,5 11,4 4 2 NE 1015,8 -
10.11.2018 18:00:00 12,6 11,5 5 3 ENE 1015,5 -
10.11.2018 17:00:00 12,6 11,5 5 3 ENE 1015,5 -
10.11.2018 16:00:00 12,7 11,6 5 3 ENE 1015,5 -
10.11.2018 15:00:00 12,7 11,6 9 5 E 1015,4 -
10.11.2018 14:00:00 12,9 11,9 8 4 E 1015,8 -
10.11.2018 13:00:00 12,7 11,7 8 4 E 1016,1 -
10.11.2018 12:00:00 12,7 11,7 5 3 E 1016,8 -
10.11.2018 11:00:00 12,6 11,6 8 4 E 1017,1 -
10.11.2018 10:00:00 12,7 11,7 5 3 E 1017,1 -
10.11.2018 09:00:00 13,0 12,0 4 2 ENE 1017,0 -
10.11.2018 08:00:00 13,0 12,0 4 2 NNE 1016,7 -
10.11.2018 07:00:00 12,9 11,9 0 0 N 1016,4 -
10.11.2018 06:00:00 13,0 12,0 0 0 N 1016,6 -
10.11.2018 05:00:00 13,0 11,9 5 3 NNO 1016,8 -
10.11.2018 04:00:00 13,1 12,0 2 1 NO 1017,0 -
10.11.2018 03:00:00 13,4 12,3 0 0 N 1017,1 -
10.11.2018 02:00:00 13,5 12,4 0 0 N 1017,5 -
10.11.2018 01:00:00 13,5 12,4 4 2 NO 1017,8 -
10.11.2018 00:00:00 13,6 12,5 4 2 NO 1018,3 -
09.11.2018 23:00:00 13,6 12,5 2 1 ONO 1018,4 -
09.11.2018 22:00:00 13,6 12,5 4 2 N 1018,6 -
09.11.2018 21:00:00 13,8 12,7 4 2 ONO 1018,6 -
09.11.2018 20:00:00 13,9 12,8 2 1 NO 1018,4 -
09.11.2018 19:00:00 13,9 12,8 4 2 NNO 1018,3 -
09.11.2018 18:00:00 14,2 13,0 2 1 ONO 1018,4 -
09.11.2018 17:00:00 14,4 13,2 0 0 N 1018,1 -
09.11.2018 16:00:00 14,4 13,2 2 1 NNO 1018,2 -
09.11.2018 15:00:00 14,2 13,0 2 1 NNE 1018,4 -
09.11.2018 14:00:00 14,1 12,9 5 3 ENE 1018,7 -
09.11.2018 13:00:00 14,2 13,0 5 3 E 1019,1 -
09.11.2018 12:00:00 14,1 12,9 4 2 NE 1019,4 -
09.11.2018 11:00:00 14,0 13,0 4 2 NNE 1019,7 -
09.11.2018 10:00:00 13,7 12,7 4 2 NNE 1019,7 -
09.11.2018 09:00:00 13,3 12,3 4 2 N 1019,8 -
09.11.2018 08:00:00 13,1 12,1 4 2 N 1019,6 -

tt = Temperatura
td = dewpoint
ff = velocità del vento
dd = direzione del vento
ppp = reduced air pressure
rr = precipitazioni

Stazioni seguenti

WeatherPro
AMSI
MeteoEarth